Flag for Slovakia Weather past 2 weeks in Prešov, Slovakia

Now
43 °F

Sunny.


Feels Like: 36 °F
Forecast: 40 / 49 °F
Wind: 13 mph from Southwest

Location: Kosice - Barca

Current Time: Dec 22, 2014 at 1:07:15 PM

Latest Report: Dec 22, 2014 at 12:30 PM


Visibility: 10 mi

Pressure: 29.98 "Hg

Humidity: 71%

Dew point: 34 °F

Location of PrešovLocation

Historic Weather in Prešov — Graph

°F

Prešov temperature yesterday

Maximum temperature yesterday: 45 °F (at 12:00 PM)
Minimum temperature yesterday: 30 °F (at 2:00 AM)
Average temperature yesterday: 37 °F

Past Weeks' High & Low Weather Summary

 TemperatureHumidityPressure
High48 °F (Dec 20, 10:30 AM)100% (Dec 11, 7:30 AM)30.27 "Hg (Dec 11, 7:30 AM)
Low28 °F (Dec 11, 6:00 AM)46% (Dec 21, 1:00 PM)29.80 "Hg (Dec 17, 2:30 AM)
Average38 °F87%30.05 "Hg
* Reported Dec 7 12:00 Noon — Dec 22 12:00 Noon, Prešov, Weather by CustomWeather, © 2014

Note: Actual official high and low records may vary slightly from our data, if they occured in-between our weather recording intervals... More about our weather records

Advertising

Prešov weather history for previous 24 hours

 ConditionsComfort  
Time TempWeatherWind HumidityBarometerVisibility
12:00 PM
Dec 22
41 °FSunny.15 mph76%29.98 "Hg10 mi
11:30 AM41 °FSunny.13 mph76%30.01 "Hg10 mi
11:00 AM41 °FSunny.12 mph76%30.01 "Hg10 mi
10:30 AM41 °FSunny.12 mph70%30.04 "Hg10 mi
10:00 AM41 °FSunny.10 mph70%30.04 "Hg10 mi
9:30 AM39 °FOvercast.10 mph75%30.04 "HgN/A
9:00 AM39 °FPartly sunny.14 mph75%30.04 "HgN/A
8:30 AM39 °FPartly sunny.13 mph75%30.07 "HgN/A
8:00 AM39 °FSunny.12 mph75%30.07 "Hg10 mi
7:30 AM37 °FSunny.9 mph81%30.07 "Hg10 mi
7:00 AM37 °FClear.15 mph81%30.07 "Hg10 mi
6:30 AM37 °FClear.10 mph81%30.07 "Hg10 mi
6:00 AM37 °FClear.12 mph81%30.09 "Hg10 mi
5:30 AM37 °FClear.10 mph81%30.09 "Hg10 mi
4:30 AM37 °FClear.10 mph81%30.12 "Hg10 mi
4:00 AM36 °FClear.9 mph81%30.12 "Hg10 mi
3:30 AM37 °FClear.9 mph75%30.15 "Hg10 mi
3:00 AM37 °FClear.13 mph75%30.15 "Hg10 mi
2:30 AM37 °FClear.10 mph75%30.15 "Hg10 mi
2:00 AM36 °FClear.10 mph81%30.18 "Hg10 mi
1:30 AM32 °FPassing clouds.3 mph87%30.18 "HgN/A
1:00 AM34 °FClear.6 mph81%30.21 "Hg10 mi
12:30 AM32 °FPassing clouds.5 mph87%30.21 "HgN/A
12:00 AM32 °FPassing clouds.3 mph87%30.21 "HgN/A
11:30 PM
Dec 21
34 °FClear.2 mph75%30.24 "Hg10 mi
10:30 PM34 °FClear.6 mph75%30.24 "Hg10 mi
10:00 PM36 °FClear.8 mph70%30.24 "Hg10 mi
9:30 PM32 °FClear.7 mph80%30.24 "Hg10 mi
9:00 PM32 °FPassing clouds.3 mph87%30.27 "HgN/A
8:30 PM36 °FClear.5 mph70%30.27 "Hg10 mi
8:00 PM36 °FClear.7 mph70%30.24 "Hg10 mi
7:30 PM34 °FClear.7 mph70%30.24 "Hg10 mi
7:00 PM37 °FClear.6 mph60%30.24 "Hg10 mi
6:30 PM39 °FPassing clouds.3 mph61%30.24 "HgN/A
6:00 PM39 °FClear.2 mph52%30.24 "Hg10 mi
5:30 PM41 °FPassing clouds.8 mph49%30.21 "HgN/A
5:00 PM41 °FPassing clouds.6 mph53%30.21 "HgN/A
4:30 PM39 °FClear.6 mph61%30.21 "Hg10 mi
4:00 PM41 °FClear.3 mph57%30.18 "Hg10 mi
3:30 PM41 °FSunny.5 mph57%30.18 "Hg10 mi
3:00 PM43 °FSunny.12 mph53%30.18 "Hg10 mi
2:30 PM43 °FSunny.15 mph49%30.15 "Hg10 mi
2:00 PM45 °FSunny.20 mph46%30.15 "Hg10 mi
1:30 PM45 °FPassing clouds.22 mph46%30.15 "HgN/A
1:00 PM45 °FPassing clouds.16 mph46%30.12 "HgN/A
Weather by CustomWeather, © 2014

See weather overviewHow to use our weather pages